Weather History for Aberdeen, SD

Change the Weather History Date:

Monday, February 4, 2013

  Actual Average Record
Temperature  
Mean Temperature 12 °F 14 °F  
Max Temperature 25 °F 25 °F 55 °F (2005)
Min Temperature -2 °F 3 °F -36 °F (1893)
Degree Days  
Heating Degree Days 53 51  
Month to date heating degree days 222 205  
Since 1 July heating degree days 5235 5339  
Cooling Degree Days 0 0  
Month to date cooling degree days 0 0  
Year to date cooling degree days 0 0  
Moisture  
Dew Point 7 °F    
Average Humidity 81    
Maximum Humidity 88    
Minimum Humidity 73    
Precipitation  
Precipitation 0.01 in 0.02 in 0.45 in (1897)
Month to date precipitation 0.05 0.06  
Year to date precipitation 0.83 0.53  
Snow  
Snow 0.10 in - - ()
Month to date snowfall 0.7  
Since 1 July snowfall 24.2  
Snow Depth 6.00 in    
Sea Level Pressure  
Sea Level Pressure 29.93 in    
Wind  
Wind Speed 10 mph (South)    
Max Wind Speed 20 mph    
Max Gust Speed 22 mph    
Visibility 8 miles    
Events Snow    
T = Trace of Precipitation, MM = Missing Value Source: NWS Daily Summary

Daily Weather History Graph

Daily Weather History Graph

Search for Another Location

Airport:

Trip Planner

Search our weather history database for the weather conditions in past years. The results will help you decide how hot, cold, wet, or windy it might be!

Date:

Astronomy

Feb. 04, 2013 Rise Set
Actual Time 7:50 AM CST 5:45 PM CST
Civil Twilight 7:19 AM CST 6:16 PM CST
Nautical Twilight 6:44 AM CST 6:51 PM CST
Astronomical Twilight 6:09 AM CST 7:26 PM CST
Moon 2:31 AM CST (2/4) 12:05 PM CST (2/4)
Length of Visible Light 10h 57m
Length of Day
9h 54m
Last Quarter, 37% of the Moon is Illuminated
Feb 4
Last Quarter
Feb 10
New
Feb 17
First Quarter
Feb 25
Full
Mar 4
Last Quarter

Hourly Weather History & Observations

Time (CST) Temp. Windchill Dew Point Humidity Pressure Visibility Wind Dir Wind Speed Gust Speed Precip Events Conditions
12:53 AM 6.1 °F -8.7 °F -0.0 °F 76% 30.06 in 10.0 mi NE 10.4 mph - N/A   Overcast
1:53 AM 6.1 °F -6.8 °F -0.0 °F 76% 30.08 in 10.0 mi North 8.1 mph - N/A   Overcast
2:07 AM 6.8 °F -4.8 °F -0.4 °F 72% 30.00 in 10.0 mi NE 6.9 mph - N/A   Overcast
2:53 AM 5.0 °F -6.9 °F -0.9 °F 76% 30.09 in 10.0 mi NE 6.9 mph - N/A   Mostly Cloudy
4:53 AM 1.4 °F -6.2 °F -4.0 °F 78% 30.03 in 10.0 mi North 3.5 mph - N/A   Mostly Cloudy
5:53 AM 1.0 °F - -4.0 °F 79% 30.11 in 10.0 mi Calm Calm - N/A   Mostly Cloudy
6:00 AM -2.2 °F - -5.8 °F 85% 30.02 in 10.0 mi Calm Calm - N/A   Mostly Cloudy
6:53 AM 1.0 °F - -4.0 °F 79% 30.11 in 10.0 mi Calm Calm - N/A   Overcast
7:35 AM 1.4 °F - -2.2 °F 85% 30.03 in 10.0 mi Calm Calm - N/A   Overcast
7:53 AM 1.9 °F - -2.9 °F 80% 30.12 in 10.0 mi Calm Calm - N/A   Overcast
8:29 AM 3.2 °F -4.2 °F -2.2 °F 78% 30.03 in 10.0 mi SSE 3.5 mph - N/A   Overcast
8:39 AM 3.2 °F -4.2 °F -2.2 °F 78% 30.02 in 10.0 mi SE 3.5 mph - N/A   Overcast
8:53 AM 3.9 °F -5.3 °F -2.0 °F 76% 30.11 in 10.0 mi SE 4.6 mph - N/A   Overcast
9:10 AM 3.2 °F -7.8 °F -2.2 °F 78% 30.01 in 10.0 mi SE 5.8 mph - N/A   Overcast
9:21 AM 3.2 °F -10.3 °F -2.2 °F 78% 29.99 in 10.0 mi SE 8.1 mph - N/A   Overcast
9:53 AM 5.0 °F -8.1 °F -0.9 °F 76% 30.07 in 10.0 mi SE 8.1 mph - N/A   Overcast
10:53 AM 7.0 °F -5.7 °F -0.0 °F 73% 30.06 in 10.0 mi South 8.1 mph - N/A   Overcast
11:53 AM 9.0 °F -5.9 °F 1.9 °F 73% 30.06 in 10.0 mi SSW 11.5 mph - N/A   Overcast
12:53 PM 10.0 °F -6.5 °F 3.9 °F 76% 30.01 in 10.0 mi SSW 15.0 mph - N/A   Overcast
1:53 PM 12.0 °F -3.4 °F 7.0 °F 80% 29.96 in 10.0 mi South 13.8 mph - N/A   Overcast
2:20 PM 12.2 °F -2.5 °F 8.6 °F 85% 29.85 in 10.0 mi South 12.7 mph - N/A   Mostly Cloudy
2:35 PM 14.0 °F -0.2 °F 8.6 °F 79% 29.84 in 10.0 mi South 12.7 mph - N/A   Mostly Cloudy
2:51 PM 15.8 °F 0.3 °F 8.6 °F 73% 29.83 in 10.0 mi South 16.1 mph - N/A   Scattered Clouds
2:53 PM 15.1 °F -0.1 °F 9.0 °F 77% 29.91 in 10.0 mi South 15.0 mph - N/A   Mostly Cloudy
3:53 PM 17.1 °F 3.6 °F 12.0 °F 81% 29.89 in 10.0 mi South 12.7 mph - N/A   Overcast
4:51 PM 19.4 °F 6.0 °F 14.0 °F 80% 29.77 in 1.8 mi South 13.8 mph - 0.00 in Snow Light Snow
4:53 PM 19.0 °F 4.5 °F 15.1 °F 85% 29.86 in 1.2 mi South 16.1 mph - 0.00 in Snow Light Snow
5:04 PM 19.4 °F 5.0 °F 15.8 °F 86% 29.77 in 2.0 mi South 16.1 mph - 0.00 in Snow Light Snow
5:29 PM 19.4 °F 5.5 °F 15.8 °F 86% 29.76 in 3.0 mi South 15.0 mph - 0.00 in Snow Light Snow
5:47 PM 21.2 °F 7.3 °F 15.8 °F 80% 29.76 in 1.8 mi South 16.1 mph - 0.00 in Snow Light Snow
5:53 PM 21.0 °F 7.6 °F 17.1 °F 85% 29.83 in 1.2 mi South 15.0 mph - 0.00 in Snow Light Snow
6:03 PM 21.2 °F 8.3 °F 17.6 °F 86% 29.74 in 2.0 mi South 13.8 mph - 0.00 in Snow Light Snow
6:18 PM 21.2 °F 6.4 °F 17.6 °F 86% 29.73 in 3.0 mi South 18.4 mph - 0.00 in Snow Light Snow
6:53 PM 23.0 °F 10.1 °F 19.0 °F 85% 29.80 in 10.0 mi South 15.0 mph - 0.01 in   Overcast
7:53 PM 24.1 °F 11.5 °F 19.0 °F 81% 29.78 in 10.0 mi South 15.0 mph - N/A   Overcast
8:53 PM 23.0 °F 9.6 °F 19.0 °F 85% 29.76 in 10.0 mi South 16.1 mph - N/A   Clear
9:53 PM 24.1 °F 12.0 °F 19.9 °F 84% 29.75 in 10.0 mi South 13.8 mph - N/A   Overcast
10:53 PM 24.1 °F 13.7 °F 19.9 °F 84% 29.73 in 10.0 mi South 10.4 mph - N/A   Clear
11:53 PM 25.0 °F 16.3 °F 21.0 °F 85% 29.73 in 10.0 mi South 8.1 mph - N/A   Overcast